Omaha Millard, NE

8:42 PM CDT on March 29, 2017 (GMT -0500)
Millard Municipal

Weather History for KMLE - January, 2014

Change the Weather History Date:

Wednesday, January 29, 2014

  Actual Average (KOFF) Record (KOFF)
Temperature  
Mean Temperature 22 °F -  
Max Temperature 45 °F 32 °F 50 °F (2016)
Min Temperature 0 °F 16 °F -5 °F (2004)
Degree Days  
Heating Degree Days 42    
Moisture  
Dew Point 4 °F    
Average Humidity 48    
Maximum Humidity 77    
Minimum Humidity 22    
Precipitation  
Precipitation 0.00 in - - ()
Sea Level Pressure  
Sea Level Pressure 29.95 in    
Wind  
Wind Speed 4 mph (South)    
Max Wind Speed 16 mph    
Max Gust Speed 24 mph    
Visibility 10 miles    
Events      
Averages and records for this station are not official NWS values.
T = Trace of Precipitation, MM = Missing Value Source: NWS Daily Summary

Daily Weather History Graph

Daily Weather History Graph

Search for Another Location

Airport or City:

Trip Planner

Search our weather history database for the weather conditions in past years. The results will help you decide how hot, cold, wet, or windy it might be!

Date:

Astronomy

Jan. 29, 2014 Rise Set
Actual Time 7:38 AM CST 5:37 PM CST
Civil Twilight 7:08 AM CST 6:06 PM CST
Nautical Twilight 6:35 AM CST 6:40 PM CST
Astronomical Twilight 6:03 AM CST 7:12 PM CST
Moon 6:15 AM CST (1/29) 4:38 PM CST (1/29)
Length of Visible Light 10h 57m
Length of Day
9h 59m
Waning Crescent, 2% of the Moon is Illuminated
Jan 29
Waning Crescent
Jan 30
New
Feb 6
First Quarter
Feb 14
Full
Feb 22
Last Quarter

Hourly Weather History & Observations

Time (CST) Temp. Windchill Dew Point Humidity Pressure Visibility Wind Dir Wind Speed Gust Speed Precip Events Conditions
12:15 AM 3.9 °F - -6.0 °F 64% 30.24 in 10.0 mi Calm Calm - N/A   Clear
12:35 AM 3.2 °F - -4.9 °F 69% 30.23 in 10.0 mi Calm Calm - N/A   Clear
12:55 AM 3.2 °F - -4.7 °F 70% 30.24 in 10.0 mi Calm Calm - N/A   Clear
1:15 AM 3.4 °F - -5.6 °F 66% 30.22 in 10.0 mi Calm Calm - N/A   Clear
1:35 AM 3.0 °F - -6.7 °F 64% 30.22 in 10.0 mi Calm Calm - N/A   Clear
1:55 AM 3.0 °F - -4.2 °F 72% 30.21 in 10.0 mi Calm Calm - N/A   Clear
2:15 AM 2.7 °F - -4.9 °F 71% 30.20 in 10.0 mi Calm Calm - N/A   Clear
2:35 AM 2.3 °F - -5.1 °F 71% 30.20 in 10.0 mi Calm Calm - N/A   Clear
2:55 AM 2.3 °F - -5.6 °F 70% 30.19 in 10.0 mi Calm Calm - N/A   Clear
3:15 AM 1.9 °F - -4.7 °F 74% 30.18 in 10.0 mi Calm Calm - N/A   Clear
3:35 AM 1.4 °F - -4.4 °F 77% 30.17 in 10.0 mi Calm Calm - N/A   Clear
3:55 AM 1.9 °F - -5.4 °F 71% 30.16 in 10.0 mi Calm Calm - N/A   Clear
4:15 AM 1.4 °F - -4.2 °F 77% 30.15 in 10.0 mi Calm Calm - N/A   Clear
4:35 AM 1.4 °F - -4.9 °F 75% 30.15 in 10.0 mi Calm Calm - N/A   Clear
4:55 AM 1.4 °F - -4.9 °F 75% 30.14 in 10.0 mi Calm Calm - N/A   Clear
5:15 AM 1.4 °F - -5.8 °F 72% 30.13 in 10.0 mi Calm Calm - N/A   Clear
5:35 AM 1.4 °F - -5.8 °F 72% 30.13 in 10.0 mi Calm Calm - N/A   Clear
5:55 AM 1.2 °F - -5.6 °F 73% 30.12 in 10.0 mi Calm Calm - N/A   Clear
6:15 AM 1.0 °F - -5.8 °F 73% 30.11 in 10.0 mi Calm Calm - N/A   Clear
6:35 AM 0.9 °F - -5.4 °F 75% 30.10 in 10.0 mi Calm Calm - N/A   Clear
6:55 AM 1.4 °F - -4.9 °F 75% 30.11 in 10.0 mi Calm Calm - N/A   Clear
7:15 AM 1.0 °F - -5.3 °F 75% 30.10 in 10.0 mi Calm Calm - N/A   Clear
7:35 AM 1.4 °F -6.2 °F -5.4 °F 73% 30.10 in 10.0 mi SE 3.5 mph - N/A   Clear
7:55 AM 0.7 °F -7.1 °F -5.8 °F 74% 30.10 in 10.0 mi SE 3.5 mph - N/A   Clear
8:15 AM 2.5 °F -7.0 °F -4.7 °F 72% 30.09 in 10.0 mi SE 4.6 mph - N/A   Clear
8:35 AM 4.8 °F -2.3 °F -2.9 °F 70% 30.09 in 10.0 mi SE 3.5 mph - N/A   Clear
8:55 AM 6.8 °F - -2.0 °F 67% 30.09 in 10.0 mi Calm Calm - N/A   Clear
9:15 AM 10.4 °F 2.2 °F 1.6 °F 68% 30.07 in 10.0 mi SSE 4.6 mph - N/A   Clear
9:35 AM 14.0 °F 8.2 °F 2.3 °F 60% 30.08 in 10.0 mi South 3.5 mph - N/A   Clear
9:55 AM 16.5 °F 6.9 °F 3.4 °F 56% 30.06 in 10.0 mi SSE 6.9 mph - N/A   Clear
10:15 AM 19.8 °F 9.1 °F 4.5 °F 52% 30.06 in 10.0 mi South 9.2 mph - N/A   Clear
10:35 AM 23.0 °F 13.1 °F 5.9 °F 48% 30.06 in 10.0 mi South 9.2 mph - N/A   Clear
10:55 AM 25.2 °F 15.1 °F 7.2 °F 46% 30.05 in 10.0 mi South 10.4 mph - N/A   Clear
11:15 AM 28.0 °F 18.6 °F 8.2 °F 43% 30.03 in 10.0 mi South 10.4 mph - N/A   Clear
11:35 AM 30.7 °F 22.6 °F 9.1 °F 40% 30.02 in 10.0 mi South 9.2 mph 17.3 mph N/A   Clear
11:55 AM 33.4 °F 25.4 °F 10.2 °F 38% 30.00 in 10.0 mi South 10.4 mph 17.3 mph N/A   Clear
12:15 PM 35.6 °F 28.0 °F 10.2 °F 35% 29.98 in 10.0 mi SSW 10.4 mph 18.4 mph N/A   Clear
12:35 PM 37.8 °F 29.4 °F 10.0 °F 32% 29.96 in 10.0 mi SSW 13.8 mph 19.6 mph N/A   Clear
12:55 PM 39.0 °F 32.3 °F 10.6 °F 31% 29.94 in 10.0 mi South 10.4 mph 23.0 mph N/A   Clear
1:15 PM 39.9 °F 31.4 °F 10.4 °F 30% 29.92 in 10.0 mi South 16.1 mph 20.7 mph N/A   Clear
1:35 PM 41.0 °F 33.5 °F 10.2 °F 28% 29.90 in 10.0 mi SSW 13.8 mph 21.9 mph N/A   Clear
1:55 PM 41.9 °F 35.9 °F 10.0 °F 27% 29.88 in 10.0 mi South 10.4 mph 24.2 mph N/A   Clear
2:15 PM 43.0 °F 36.0 °F 9.3 °F 25% 29.87 in 10.0 mi SSW 13.8 mph 20.7 mph N/A   Clear
2:35 PM 43.9 °F 38.3 °F 8.8 °F 24% 29.86 in 10.0 mi SSW 10.4 mph 21.9 mph N/A   Clear
2:55 PM 44.2 °F 38.0 °F 8.2 °F 23% 29.84 in 10.0 mi South 12.7 mph 24.2 mph N/A   Clear
3:15 PM 44.6 °F 37.8 °F 7.9 °F 22% 29.83 in 10.0 mi South 15.0 mph 24.2 mph N/A   Clear
3:35 PM 45.1 °F 38.8 °F 8.6 °F 23% 29.82 in 10.0 mi South 13.8 mph 23.0 mph N/A   Clear
3:55 PM 45.1 °F 38.8 °F 9.1 °F 23% 29.81 in 10.0 mi South 13.8 mph 20.7 mph N/A   Clear
4:15 PM 44.6 °F 38.1 °F 9.3 °F 24% 29.80 in 10.0 mi South 13.8 mph 20.7 mph N/A   Clear
4:35 PM 44.6 °F 37.8 °F 9.3 °F 24% 29.80 in 10.0 mi South 15.0 mph 20.7 mph N/A   Clear
4:55 PM 44.1 °F 38.1 °F 9.9 °F 25% 29.80 in 10.0 mi South 11.5 mph 19.6 mph N/A   Clear
5:15 PM 43.5 °F 37.5 °F 9.9 °F 25% 29.79 in 10.0 mi South 11.5 mph 17.3 mph N/A   Clear
5:35 PM 42.3 °F 36.8 °F 9.5 °F 26% 29.78 in 10.0 mi South 9.2 mph - N/A   Clear
5:55 PM 41.2 °F 36.0 °F 9.7 °F 28% 29.76 in 10.0 mi SSE 8.1 mph - N/A   Clear
6:15 PM 40.1 °F 36.1 °F 9.9 °F 29% 29.76 in 10.0 mi South 5.8 mph - N/A   Clear
6:35 PM 39.4 °F 36.1 °F 9.7 °F 29% 29.75 in 10.0 mi SSE 4.6 mph - N/A   Clear
6:55 PM 38.8 °F 34.6 °F 9.9 °F 30% 29.74 in 10.0 mi SSE 5.8 mph - N/A   Clear
7:15 PM 38.8 °F 32.1 °F 9.7 °F 30% 29.73 in 10.0 mi SSE 10.4 mph - N/A   Clear
7:35 PM 38.5 °F 32.1 °F 9.3 °F 30% 29.73 in 10.0 mi South 9.2 mph - N/A   Clear
7:55 PM 39.2 °F 33.0 °F 9.5 °F 29% 29.72 in 10.0 mi South 9.2 mph - N/A   Clear
8:15 PM 38.1 °F 31.7 °F 9.5 °F 31% 29.72 in 10.0 mi South 9.2 mph - N/A   Clear
8:35 PM 37.6 °F 33.1 °F 9.5 °F 31% 29.71 in 10.0 mi South 5.8 mph - N/A   Clear
8:55 PM 37.4 °F 32.1 °F 10.2 °F 33% 29.69 in 10.0 mi South 6.9 mph - N/A   Clear
9:15 PM 36.9 °F 31.4 °F 10.2 °F 33% 29.69 in 10.0 mi South 6.9 mph - N/A   Clear
9:35 PM 36.7 °F 32.0 °F 10.4 °F 34% 29.69 in 10.0 mi South 5.8 mph - N/A   Clear
9:55 PM 36.3 °F 30.1 °F 10.8 °F 35% 29.67 in 10.0 mi SSE 8.1 mph - N/A   Clear
10:15 PM 35.8 °F 30.9 °F 10.8 °F 36% 29.67 in 10.0 mi SSE 5.8 mph - N/A   Clear
10:35 PM 36.1 °F 33.5 °F 10.4 °F 35% 29.66 in 10.0 mi SSE 3.5 mph - N/A   Clear
10:55 PM 37.8 °F 31.8 °F 10.2 °F 32% 29.64 in 10.0 mi South 8.1 mph - N/A   Clear
11:15 PM 38.7 °F 32.9 °F 9.3 °F 30% 29.64 in 10.0 mi South 8.1 mph - N/A   Clear
11:35 PM 38.7 °F 31.4 °F 8.6 °F 29% 29.62 in 10.0 mi South 11.5 mph 16.1 mph N/A   Clear
11:55 PM 38.7 °F 32.4 °F 8.4 °F 29% 29.61 in 10.0 mi South 9.2 mph 16.1 mph N/A   Clear